[[{"header":{"parameterUnit":"m.s-1","parameterCategory":1,"la1":30.2991,"la2":30.254,"lo1":-89.0895,"lo2":-89.0444,"dy":0.0017,"dx":0.0017,"nx":28,"ny":28,"refTime":"2024-05-27T21:00:00:Z","depth":0,"parameterNumber":2,"parameterNumberName":"U-component_of_WINDS"},"data":[0,0,0,0,0,0,0,0,0,0,0,0,0,0,0,0,0,0,0,0,0,0,0,0,0,0,0,0,0,0,0,0,0,0,0,0,0,0,0,0,0,0,0,0,0,0,0,0,0,0,0,0,0,0,0,0,0,0,3.1817,3.1817,0,3.186,3.186,3.1861,3.1859,3.1859,3.1858,3.1858,3.1899,3.1901,3.1903,0,0,0,0,0,0,0,0,0,0,0,0,0,3.1731,3.1732,3.1817,3.1817,3.1818,3.186,3.186,3.1861,3.1859,3.1859,3.1858,3.1857,3.1899,3.1901,3.1903,0,0,0,0,0,0,0,0,0,0,0,0,0,3.177,3.1733,3.1817,3.1822,3.1823,3.186,3.186,3.1861,3.186,3.1859,3.1858,3.1857,3.1898,3.1901,3.1903,3.1936,0,0,3.1911,3.1912,0,0,0,0,0,0,0,0,3.1768,3.1773,3.1821,3.1822,3.1823,3.1853,3.1845,3.1886,3.186,3.1846,3.1858,3.1857,3.1885,3.1888,3.1898,3.1938,3.194,3.1911,3.1912,3.1914,3.1914,0,0,0,0,0,0,0,3.1765,3.1771,3.1834,3.1822,3.1823,3.1822,3.1826,3.1853,3.187,3.1847,3.1847,3.1852,3.1885,3.1896,3.1899,3.1941,3.1911,3.1913,3.1915,3.1916,3.2009,3.201,0,0,0,0,0,0,3.1762,3.1769,3.1832,3.1835,3.1793,3.1824,3.1829,3.1845,3.1869,3.1872,3.1853,3.1852,3.1892,3.1896,3.1901,3.194,3.1913,3.1916,3.1917,3.2008,3.2009,3.201,0,0,0,0,0,0,3.176,3.1767,3.1831,3.1802,3.181,3.1826,3.1844,3.1846,3.1857,3.1874,3.1876,3.1861,3.1891,3.1897,3.1927,3.1942,3.1917,3.1919,3.2007,3.2008,3.201,3.202,0,0,0,0,0,0,3.1757,3.1767,3.178,3.1803,3.1812,3.1857,3.1845,3.1847,3.1861,3.186,3.1882,3.1885,3.1891,3.1924,3.193,3.1945,3.1921,3.2005,3.2007,3.2009,3.2018,3.2022,3.2024,0,0,0,0,0,3.1754,3.1781,3.1781,3.1788,3.1829,3.1858,3.1863,3.1871,3.1862,3.1875,3.1886,3.1884,3.1939,3.1927,3.1934,3.1949,3.2005,3.2007,3.2009,3.2017,3.2021,3.2024,0,0,0,0,0,0,3.1759,3.1784,3.1784,3.1819,3.1837,3.1858,3.1875,3.1875,3.1895,3.1893,3.1901,3.1906,3.1936,3.1946,3.1931,3.1982,3.1971,3.1974,3.1974,3.1978,3.1981,3.1978,3.1923,0,0,0,0,0,3.1764,3.1787,3.1807,3.1836,3.1845,3.1858,3.1872,3.1876,3.1894,3.1901,3.1914,3.1931,3.1952,3.1966,3.1987,3.202,3.2024,3.2034,3.2037,3.204,3.2043,3.206,3.2064,3.2017,3.2017,3.2017,0,0,3.1775,3.1791,3.1805,3.1837,3.1852,3.1874,3.1865,3.1889,3.1905,3.1905,3.1934,3.1944,3.1964,3.1995,3.201,3.2005,3.2057,3.2043,3.2044,3.2046,3.2063,3.2067,3.2071,3.2019,3.2019,3.2018,0,0,3.1806,3.1821,3.1846,3.1861,3.1883,3.1891,3.1898,3.1919,3.1926,3.1956,3.1956,3.1975,3.2011,3.2025,3.2036,3.2072,3.207,3.2079,3.2094,3.2111,3.2114,3.2118,3.2129,3.2133,3.2081,3.2082,3.2082,0,3.1816,3.185,3.1859,3.1883,3.1897,3.1899,3.1924,3.1937,3.1964,3.1973,3.1967,3.2012,3.2025,3.206,3.2069,3.2078,3.2085,3.2076,3.2113,3.2117,3.212,3.2131,3.2135,3.2082,3.2082,3.2082,3.2082,0,3.1861,3.1885,3.1903,3.193,3.1946,3.197,3.1981,3.1996,3.1999,3.2008,3.2038,3.2054,3.2077,3.2086,3.2089,3.212,3.2116,3.2112,3.21,3.2125,3.2135,3.214,3.2083,3.2083,3.2083,3.2083,0,0,3.1896,3.1927,3.1933,3.1945,3.1969,3.1988,3.2012,3.2035,3.2047,3.2066,3.2085,3.2116,3.2112,3.2125,3.2129,3.2144,3.217,3.2138,3.2138,3.2142,3.2205,3.2207,3.2212,3.217,3.2171,3.2171,3.2203,0,3.1928,3.1972,3.198,3.2018,3.204,3.2041,3.2062,3.2079,3.2088,3.2106,3.2116,3.2137,3.2131,3.2139,3.2154,3.2164,3.2183,3.2162,3.2187,3.2187,3.2181,3.2218,3.2221,3.225,3.2207,3.2208,3.2208,0,3.1972,3.1992,3.2032,3.2053,3.2062,3.2081,3.2103,3.2121,3.2139,3.2145,3.216,3.2162,3.2186,3.2174,3.2207,3.2192,3.2203,3.221,3.2211,3.2213,3.2199,3.222,3.226,3.2263,3.2215,3.2215,3.2214,0,3.1991,3.2029,3.2057,3.2068,3.2093,3.2106,3.2117,3.2134,3.2148,3.2166,3.2175,3.2196,3.2207,3.2223,3.2231,3.2222,3.2263,3.2251,3.2267,3.2266,3.2274,3.2273,3.2315,3.2283,3.2283,3.2283,3.2283,0,3.2026,3.205,3.2066,3.2084,3.211,3.212,3.2145,3.2156,3.2172,3.219,3.2193,3.221,3.222,3.2238,3.2245,3.227,3.2275,3.2279,3.2281,3.2279,3.2278,3.2285,3.2283,3.2284,3.2284,3.2284,3.2283,0,3.2052,3.2064,3.2095,3.2117,3.2123,3.2141,3.2159,3.2176,3.2185,3.2208,3.2214,3.2228,3.225,3.226,3.2286,3.2291,3.2319,3.2319,3.2313,3.2313,3.2327,3.2325,3.2374,3.2381,3.2345,3.2345,3.2346,0,3.2073,3.2092,3.2115,3.2129,3.214,3.2161,3.2175,3.2184,3.2198,3.2221,3.2234,3.2256,3.2274,3.2308,3.232,3.234,3.234,3.2356,3.2343,3.2341,3.2339,3.2338,3.2339,3.2358,3.2359,3.2359,3.2359,0,3.2108,3.2113,3.2134,3.2156,3.2173,3.219,3.2208,3.2218,3.223,3.2245,3.2268,3.2282,3.231,3.2331,3.2352,3.2362,3.2362,3.2363,3.2367,3.2365,3.236,3.2362,3.2318,3.2362,3.2361,3.2361,3.2361,3.2361,3.2132,3.2148,3.2167,3.2189,3.2204,3.222,3.2236,3.2248,3.2267,3.229,3.2295,3.2318,3.2335,3.2364,3.2375,3.2392,3.2389,3.2395,3.2397,3.2398,3.2398,3.2358,3.2396,3.2396,3.2396,3.2396,3.2396,0,3.2166,3.2179,3.2199,3.2224,3.2241,3.2241,3.226,3.2274,3.2295,3.2312,3.2329,3.2355,3.2375,3.2389,3.241,3.2421,3.2422,3.2426,3.2425,3.2427,3.2401,3.2395,3.2425,3.2425,3.2425,3.2425,3.2425,3.2425,3.2186,3.2213,3.2221,3.2255,3.2267,3.2291,3.2302,3.2316,3.2329,3.2358,3.2375,3.2384,3.2399,3.2421,3.2439,3.2443,3.2449,3.2454,3.2457,3.2432,3.2429,3.2426,3.242,3.2456,3.2456,3.2481,3.2481,3.2482]},{"header":{"parameterUnit":"m.s-1","parameterCategory":1,"la1":30.2991,"la2":30.254,"lo1":-89.0895,"lo2":-89.0444,"dy":0.0017,"dx":0.0017,"nx":28,"ny":28,"refTime":"2024-05-27T21:00:00:Z","depth":0,"parameterNumber":3,"parameterNumberName":"V-component_of_WINDS"},"data":[0,0,0,0,0,0,0,0,0,0,0,0,0,0,0,0,0,0,0,0,0,0,0,0,0,0,0,0,0,0,0,0,0,0,0,0,0,0,0,0,0,0,0,0,0,0,0,0,0,0,0,0,0,0,0,0,0,0,4.4917,4.4918,0,4.5076,4.5078,4.508,4.5106,4.5105,4.5103,4.5102,4.5261,4.5267,4.5272,0,0,0,0,0,0,0,0,0,0,0,0,0,4.4629,4.4634,4.4917,4.4919,4.4921,4.5076,4.5078,4.508,4.5106,4.5105,4.5103,4.5101,4.5259,4.5266,4.5273,0,0,0,0,0,0,0,0,0,0,0,0,0,4.4768,4.4636,4.4916,4.4952,4.4957,4.5076,4.5078,4.5081,4.5107,4.5105,4.5103,4.5101,4.5257,4.5265,4.5274,4.5366,0,0,4.5299,4.5302,0,0,0,0,0,0,0,0,4.476,4.4778,4.4945,4.495,4.4956,4.5069,4.5035,4.5176,4.5107,4.505,4.5102,4.51,4.5199,4.5212,4.5246,4.5373,4.538,4.53,4.5305,4.5308,4.5311,0,0,0,0,0,0,0,4.475,4.4772,4.498,4.4947,4.4954,4.4959,4.4976,4.5062,4.5134,4.5055,4.5057,4.5076,4.5201,4.5238,4.525,4.5383,4.5299,4.5307,4.5312,4.5315,4.5593,4.5595,0,0,0,0,0,0,4.4735,4.4763,4.4975,4.4984,4.4851,4.4966,4.4985,4.5035,4.5133,4.5146,4.5077,4.5076,4.5225,4.524,4.5256,4.537,4.5308,4.5316,4.5321,4.559,4.5593,4.5596,0,0,0,0,0,0,4.4729,4.4753,4.4968,4.4875,4.4902,4.4973,4.5028,4.5039,4.5076,4.515,4.5162,4.5102,4.5224,4.5244,4.5339,4.5376,4.532,4.5327,4.5587,4.5591,4.5594,4.56,0,0,0,0,0,0,4.472,4.4751,4.4788,4.4875,4.4907,4.505,4.5031,4.5044,4.5091,4.5091,4.5177,4.5189,4.5224,4.5326,4.5347,4.5386,4.5334,4.5584,4.5589,4.5593,4.5596,4.5603,4.5609,0,0,0,0,0,4.471,4.4782,4.479,4.4815,4.4955,4.5052,4.507,4.511,4.5094,4.5131,4.5178,4.5186,4.5368,4.5335,4.5359,4.5402,4.5582,4.5588,4.5593,4.5594,4.5602,4.5608,0,0,0,0,0,0,4.4696,4.4794,4.4804,4.4907,4.4971,4.5056,4.5104,4.5117,4.5186,4.5183,4.5229,4.5248,4.534,4.538,4.5341,4.5496,4.5474,4.5484,4.5466,4.5474,4.548,4.5469,4.534,0,0,0,0,0,4.4705,4.4777,4.4858,4.4941,4.4973,4.5033,4.5077,4.5102,4.5169,4.5196,4.5251,4.5315,4.5386,4.5433,4.5503,4.5602,4.5621,4.5643,4.5649,4.5654,4.5662,4.5717,4.5728,4.5614,4.5614,4.5613,0,0,4.4724,4.4787,4.4829,4.494,4.4993,4.5065,4.5056,4.5132,4.5185,4.5207,4.53,4.5342,4.5416,4.5514,4.5559,4.555,4.5698,4.5661,4.5664,4.567,4.5724,4.5734,4.5744,4.5617,4.5617,4.5616,0,0,4.4796,4.4851,4.4927,4.498,4.506,4.5099,4.5117,4.52,4.523,4.5324,4.5342,4.5405,4.5527,4.558,4.5622,4.5713,4.5723,4.5734,4.5766,4.5819,4.5828,4.5836,4.5868,4.5879,4.5742,4.5742,4.5743,0,4.481,4.492,4.4963,4.5039,4.5087,4.5111,4.5187,4.5236,4.5334,4.5366,4.5354,4.5509,4.5561,4.567,4.5692,4.5726,4.5747,4.5725,4.5824,4.5832,4.584,4.5871,4.5883,4.5743,4.5743,4.5743,4.5743,0,4.4933,4.5009,4.506,4.5156,4.5209,4.5284,4.5337,4.5385,4.5406,4.5445,4.554,4.5603,4.5686,4.5714,4.5734,4.5826,4.5818,4.5815,4.5794,4.5852,4.5881,4.5894,4.5745,4.5744,4.5744,4.5744,0,0,4.5001,4.5119,4.5137,4.5181,4.5271,4.533,4.5405,4.5488,4.5529,4.5595,4.5659,4.5762,4.5759,4.5808,4.5834,4.588,4.5948,4.5871,4.5873,4.5883,4.6052,4.6054,4.6067,4.5954,4.5957,4.5959,4.6046,0,4.5083,4.5221,4.5261,4.5376,4.5446,4.547,4.5536,4.5598,4.5637,4.5701,4.5743,4.5815,4.5807,4.5836,4.5883,4.5929,4.5982,4.5924,4.6013,4.6016,4.5994,4.6083,4.6086,4.6165,4.6058,4.606,4.6061,0,4.5198,4.5268,4.5391,4.5472,4.5502,4.5561,4.564,4.5701,4.5771,4.5796,4.5849,4.5871,4.595,4.5924,4.6032,4.5991,4.603,4.6058,4.6062,4.6072,4.6042,4.6095,4.6191,4.6203,4.608,4.6079,4.6077,0,4.5235,4.536,4.5449,4.5486,4.5582,4.5623,4.5665,4.5732,4.5779,4.5847,4.5878,4.5954,4.5995,4.6052,4.6094,4.6071,4.6198,4.6175,4.622,4.6219,4.6245,4.6243,4.6349,4.627,4.627,4.627,4.6269,0,4.5322,4.5396,4.5467,4.5522,4.5605,4.565,4.573,4.5773,4.5833,4.5895,4.592,4.5978,4.6029,4.6093,4.6126,4.621,4.6228,4.6249,4.6257,4.6248,4.6245,4.6274,4.6269,4.6273,4.6272,4.6272,4.6271,0,4.5378,4.5428,4.5527,4.5611,4.5634,4.5691,4.5762,4.5815,4.5855,4.5934,4.5955,4.6017,4.6094,4.6141,4.6238,4.6259,4.6352,4.6357,4.6329,4.6333,4.6374,4.6369,4.6502,4.6521,4.6429,4.643,4.6431,0,4.543,4.5488,4.5578,4.5623,4.5665,4.5736,4.5785,4.583,4.5879,4.5963,4.6006,4.6085,4.615,4.6271,4.6324,4.6398,4.6406,4.6447,4.6417,4.6405,4.6406,4.6402,4.6408,4.6452,4.6453,4.6453,4.6454,0,4.5518,4.5541,4.561,4.5689,4.5746,4.581,4.5873,4.5907,4.5963,4.6017,4.6097,4.6147,4.6247,4.6324,4.6403,4.6444,4.6458,4.6463,4.6477,4.6468,4.6449,4.6459,4.6343,4.646,4.6459,4.6459,4.6458,4.6458,4.5574,4.5626,4.5698,4.5775,4.5827,4.5886,4.594,4.5987,4.6055,4.6141,4.6163,4.6246,4.6313,4.6421,4.6463,4.6528,4.6522,4.6542,4.6547,4.6552,4.6553,4.6438,4.6543,4.6542,4.6542,4.6542,4.6542,0,4.5663,4.5711,4.5781,4.5869,4.5929,4.5938,4.6008,4.6057,4.6131,4.6193,4.6257,4.6348,4.6424,4.6482,4.6559,4.6599,4.6608,4.6618,4.6616,4.6625,4.6554,4.6534,4.661,4.661,4.661,4.661,4.661,4.661,4.5716,4.5806,4.5836,4.5951,4.5997,4.6081,4.612,4.6173,4.6223,4.6325,4.6388,4.6426,4.6487,4.6568,4.6637,4.6652,4.6679,4.6688,4.6704,4.6637,4.663,4.6623,4.6604,4.6693,4.6694,4.677,4.677,4.6771]}]]